Location: Stockholm
(59.3293°N, 18.0686°E)
Time: 14:42:26
(UTC+02:00)

Envisat - Visible Passes

Search period start: 30 March 2017 00:00
Search period end: 09 April 2017 00:00
Orbit: 764 x 766 km, 98.2° (Epoch: 28 March)

Date Brightness Start Highest point End Pass type
(mag) Time Alt. Az. Time Alt. Az. Time Alt. Az.
30 Mar 3.0 20:16:49 10° SSE 20:21:55 80° ENE 20:27:02 10° NNW visible
30 Mar 5.1 21:57:26 10° SW 22:01:31 24° W 22:05:39 10° NW visible
31 Mar 4.2 21:19:40 10° SSW 21:24:27 41° W 21:29:18 10° NNW visible
01 Apr 3.3 20:42:30 10° S 20:47:35 72° WSW 20:52:41 10° NNW visible
01 Apr 5.6 22:24:21 10° WSW 22:27:32 16° W 22:30:45 10° NW visible
02 Apr 4.9 21:45:59 10° SSW 21:50:20 28° W 21:54:44 10° NNW visible
03 Apr 3.9 21:08:24 10° S 21:13:19 48° W 21:18:17 10° NNW visible
03 Apr 5.8 22:52:22 10° W 22:53:39 11° WNW 22:54:56 10° WNW visible
04 Apr 3.1 20:31:23 10° SSE 20:36:29 83° WSW 20:41:37 10° NNW visible
04 Apr 5.4 22:12:41 10° SW 22:16:18 19° W 22:19:57 10° NW visible
05 Apr 4.6 21:34:35 10° SSW 21:39:09 33° W 21:43:46 10° NNW visible
06 Apr 3.7 20:57:12 10° S 21:02:12 57° WSW 21:07:14 10° NNW visible
06 Apr 5.7 22:40:03 10° WSW 22:42:22 13° W 22:44:43 10° NW visible
07 Apr 3.0 20:20:19 10° SSE 20:25:25 84° ENE 20:30:33 10° NNW visible
07 Apr 5.2 22:01:07 10° SW 22:05:05 23° W 22:09:05 10° NW visible
08 Apr 4.4 21:23:16 10° SSW 21:28:00 38° W 21:32:46 10° NNW visible
